TimeCST,TemperatureF,Dew PointF,Humidity,Sea Level PressureIn,VisibilityMPH,Wind Direction,Wind SpeedMPH,Gust SpeedMPH,PrecipitationIn,Events,Conditions,WindDirDegrees,DateUTC
5:58 AM,54,46,67,29.91,3,Calm,Calm,,,,Mostly Cloudy,,2012-11-04 11:58:00
6:17 AM,51.8,48.2,88,30.33,8.0,West,3.5,-,N/A,,Mostly Cloudy,280,2012-11-04 12:17:00
6:52 AM,50.0,48.2,94,30.33,8.0,West,3.5,-,N/A,,Overcast,280,2012-11-04 12:52:00
7:49 AM,51.8,48.2,88,30.34,8.0,NNW,4.6,-,N/A,,Overcast,340,2012-11-04 13:49:00
8:40 AM,59,43,44,29.97,3,Calm,Calm,,,,Haze,,2012-11-04 14:40:00
8:44 AM,55.4,48.2,77,30.35,7.0,Calm,Calm,-,N/A,,Overcast,0,2012-11-04 14:44:00
9:42 AM,60.8,48.2,63,30.36,8.0,East,4.6,-,N/A,,Overcast,90,2012-11-04 15:42:00
10:45 AM,64.4,42.8,45,30.35,8.0,Calm,Calm,-,N/A,,Overcast,0,2012-11-04 16:45:00
11:40 AM,70,38,20,29.92,3,SE,2.2,,,,Haze,140,2012-11-04 17:40:00
11:41 AM,68.0,41.0,37,30.33,8.0,ESE,6.9,-,N/A,,Overcast,120,2012-11-04 17:41:00
12:53 PM,68.0,37.4,33,30.29,8.0,SSE,6.9,-,N/A,,Mostly Cloudy,160,2012-11-04 18:53:00
1:41 PM,68.0,35.6,30,30.29,8.0,SSE,11.5,-,N/A,,Overcast,160,2012-11-04 19:41:00
2:40 PM,69,39,22,29.81,9,ESE,2.2,,,,Haze,110,2012-11-04 20:40:00
2:45 PM,68.0,39.2,35,30.27,8.0,SSE,9.2,-,N/A,,Overcast,160,2012-11-04 20:45:00
3:41 PM,68.0,39.2,35,30.28,8.0,South,9.2,-,N/A,,Overcast,170,2012-11-04 21:41:00
4:47 PM,64.4,39.2,40,30.29,8.0,SSW,8.1,-,N/A,,Overcast,200,2012-11-04 22:47:00
5:40 PM,65,40,29,29.80,12,SE,2.2,,,,Overcast,140,2012-11-04 23:40:00
5:43 PM,62.6,41.0,45,30.31,8.0,SW,6.9,-,N/A,,Overcast,220,2012-11-04 23:43:00
6:48 PM,59.0,41.0,51,30.32,8.0,SW,5.8,-,N/A,,Mostly Cloudy,220,2012-11-05 00:48:00
7:41 PM,57.2,42.8,59,30.34,8.0,ESE,4.6,-,N/A,,Mostly Cloudy,120,2012-11-05 01:41:00
8:45 PM,59,51,66,29.84,3,NE,2.2,,,,Scattered Clouds,40,2012-11-05 02:45:00
8:48 PM,57.2,48.2,72,30.38,8.0,SE,6.9,-,N/A,,Mostly Cloudy,140,2012-11-05 02:48:00
9:54 PM,55.4,48.2,77,30.38,8.0,Calm,Calm,-,N/A,,Mostly Cloudy,0,2012-11-05 03:54:00
10:47 PM,55.4,48.2,77,30.38,8.0,Calm,Calm,-,N/A,,Mostly Cloudy,0,2012-11-05 04:47:00
11:45 PM,57,52,79,29.89,3,NE,2.2,,,,Scattered Clouds,40,2012-11-05 05:45:00
11:48 PM,55.4,50.0,82,30.37,8.0,Calm,Calm,-,N/A,,Mostly Cloudy,0,2012-11-05 05:48:00